Doha, Qatar

1:03 PM +03 on February 22, 2018 (GMT +0300)
Doha

Weather History for 41170 - June, 2013

Change the Weather History Date:

Saturday, June 15, 2013

  Actual Average Record
Temperature  
Mean Temperature 92 °F -  
Max Temperature 103 °F 106 °F - ()
Min Temperature 82 °F 83 °F - ()
Cooling Degree Days 28    
Growing Degree Days 42 (Base 50)    
Moisture  
Dew Point 64 °F    
Average Humidity 38    
Maximum Humidity 55    
Minimum Humidity 22    
Precipitation  
Precipitation 0.00 in 0.00 in - ()
Sea Level Pressure  
Sea Level Pressure 29.45 in    
Wind  
Wind Speed 7 mph ()    
Max Wind Speed 16 mph    
Max Gust Speed -    
Visibility 2.5 miles    
Events      
T = Trace of Precipitation, MM = Missing Value Source: Averaged Metar Reports

Daily Weather History Graph

Daily Weather History Graph

Search for Another Location

Airport or City:

Trip Planner

Search our weather history database for the weather conditions in past years. The results will help you decide how hot, cold, wet, or windy it might be!

Date:

Astronomy

Jun. 15, 2013 Rise Set
Actual Time 4:43 AM +03 6:25 PM +03
Civil Twilight 4:17 AM +03 6:51 PM +03
Nautical Twilight 3:46 AM +03 7:22 PM +03
Astronomical Twilight 3:13 AM +03 7:54 PM +03
Moon 10:21 AM +03 (6/15) 10:55 PM +03 (6/15)
Length of Visible Light 14h 33m
Length of Day
13h 42m
Waxing Crescent, 36% of the Moon is Illuminated
Jun 15
Waxing Crescent
Jun 16
First Quarter
Jun 23
Full
Jun 30
Last Quarter
Jul 8
New

Hourly Weather History & Observations

Time (+03) Temp. Heat Index Dew Point Humidity Pressure Visibility Wind Dir Wind Speed Gust Speed Precip Events Conditions
12:00 AM 87.8 °F 92.6 °F 69.8 °F 55% 29.44 in - Variable 2.3 mph - N/A   Clear
1:00 AM 87.8 °F 88.5 °F 62.6 °F 43% 29.44 in - West 5.8 mph - N/A   Clear
2:00 AM 87.8 °F 88.5 °F 62.6 °F 43% 29.42 in - Variable 2.3 mph - N/A   Clear
3:00 AM 87 °F - 65 °F 38% 29.44 in 6 mi WSW 3.5 mph - -  
3:00 AM 87.8 °F 89.4 °F 64.4 °F 46% 29.44 in - WSW 3.5 mph - N/A   Clear
3:30 AM 87.8 °F 87.1 °F 59.0 °F 38% 29.44 in - WNW 4.6 mph - N/A   Clear
4:00 AM 89.6 °F 87.3 °F 53.6 °F 29% 29.44 in - WNW 6.9 mph - N/A   Clear
5:00 AM 91.4 °F 89.1 °F 53.6 °F 28% 29.47 in 5.0 mi Variable 2.3 mph - N/A   Unknown
6:00 AM 89.6 °F 88.1 °F 57.2 °F 33% 29.47 in 5.0 mi Variable 2.3 mph - N/A   Unknown
6:30 AM 91.4 °F 89.9 °F 57.2 °F 31% 29.47 in 5.0 mi WNW 5.8 mph - N/A   Unknown
7:00 AM 91.4 °F 90.7 °F 59.0 °F 34% 29.47 in 3.7 mi NW 8.1 mph - N/A   Unknown
8:00 AM 93.2 °F 94.9 °F 64.4 °F 38% 29.47 in 1.9 mi NW 10.4 mph - N/A   Unknown
8:30 AM 93.2 °F 94.9 °F 64.4 °F 38% 29.47 in 1.6 mi NW 11.5 mph - N/A   Unknown
9:00 AM 95 °F - 65 °F 28% 29.49 in 2 mi NNW 11.5 mph - -   Widespread Dust
9:00 AM 95.0 °F 97.0 °F 64.4 °F 36% 29.47 in 1.6 mi NNW 11.5 mph - N/A   Unknown
9:30 AM 96.8 °F 100.7 °F 66.2 °F 37% 29.47 in 1.6 mi WNW 10.4 mph - N/A   Unknown
10:00 AM 98.6 °F 102.8 °F 66.2 °F 35% 29.47 in 1.6 mi NW 9.2 mph - N/A   Unknown
10:30 AM 82.4 °F 83.9 °F 64.4 °F 54% 29.47 in 1.6 mi NW 10.4 mph - N/A   Unknown
11:00 AM 102.2 °F 105.5 °F 64.4 °F 29% 29.47 in 1.6 mi NNW 10.4 mph - N/A   Unknown
11:30 AM 102.2 °F 105.5 °F 64.4 °F 29% 29.47 in 1.6 mi NNW 12.7 mph - N/A   Unknown
12:00 PM 102.2 °F 106.9 °F 66.2 °F 31% 29.47 in 1.6 mi North 13.8 mph - N/A   Unknown
12:30 PM 100.4 °F 106.3 °F 68.0 °F 35% 29.47 in 2.5 mi North 12.7 mph - N/A   Unknown
1:00 PM 98.6 °F 105.5 °F 69.8 °F 39% 29.47 in 2.5 mi North 11.5 mph - N/A   Unknown
1:30 PM 96.8 °F 107.3 °F 73.4 °F 47% 29.44 in 2.5 mi North 15.0 mph - N/A   Unknown
2:00 PM 96.8 °F 105.1 °F 71.6 °F 44% 29.44 in 1.9 mi North 16.1 mph - N/A   Unknown
2:30 PM 96.8 °F 105.1 °F 71.6 °F 44% 29.44 in 1.9 mi North 15.0 mph - N/A   Unknown
3:00 PM 95 °F - 73 °F 40% 29.45 in 2 mi North 15.0 mph - -   Widespread Dust
3:00 PM 95.0 °F 104.5 °F 73.4 °F 49% 29.44 in 1.9 mi North 15.0 mph - N/A   Unknown
3:30 PM 96.8 °F 105.1 °F 71.6 °F 44% 29.42 in 1.9 mi North 16.1 mph - N/A   Unknown
4:00 PM 96.8 °F 107.3 °F 73.4 °F 47% 29.42 in 1.9 mi North 12.7 mph - N/A   Unknown
5:00 PM 93.2 °F 100.5 °F 71.6 °F 49% 29.44 in 1.6 mi North 12.7 mph - N/A   Unknown
6:00 PM 91.4 °F 100.1 °F 73.4 °F 55% 29.44 in 1.6 mi North 10.4 mph - N/A   Unknown
6:30 PM 91.4 °F 98.4 °F 71.6 °F 52% 29.44 in 1.2 mi North 8.1 mph - N/A   Unknown
7:00 PM 91.4 °F 98.4 °F 71.6 °F 52% 29.44 in 2.2 mi North 9.2 mph - N/A   Unknown
7:30 PM 93.2 °F 94.1 °F 62.6 °F 36% 29.44 in 2.5 mi North 10.4 mph - N/A   Unknown
8:00 PM 93.2 °F 94.1 °F 62.6 °F 36% 29.44 in 2.5 mi NNW 10.4 mph - N/A   Unknown
8:30 PM 91.4 °F 92.1 °F 62.6 °F 38% 29.47 in 2.5 mi North 8.1 mph - N/A   Unknown
9:00 PM 92 °F - 57 °F 22% 29.48 in 2 mi North 5.8 mph - -   Widespread Dust
9:00 PM 91.4 °F 89.9 °F 57.2 °F 31% 29.47 in 2.5 mi North 5.8 mph - N/A   Unknown
10:00 PM 93.2 °F 90.8 °F 53.6 °F 26% 29.47 in 2.8 mi NNW 5.8 mph - N/A   Unknown
10:30 PM 93.2 °F 90.8 °F 53.6 °F 26% 29.47 in 3.1 mi NW 4.6 mph - N/A   Unknown
11:00 PM 93.2 °F 91.9 °F 57.2 °F 30% 29.44 in 3.7 mi NW 5.8 mph - N/A   Unknown
11:30 PM 91.4 °F 90.7 °F 59.0 °F 34% 29.44 in 3.7 mi WNW 8.1 mph - N/A   Unknown